Change the Weather History Date:

Tuesday, July 3, 2012

  Actual Average Record
Temperature  
Mean Temperature 84 °F -  
Max Temperature 97 °F 81 °F 97 °F (2012)
Min Temperature 71 °F 60 °F 53 °F (2010)
Cooling Degree Days 18    
Growing Degree Days 34 (Base 50)    
Moisture  
Dew Point 66 °F    
Average Humidity 59    
Maximum Humidity 90    
Minimum Humidity 32    
Precipitation  
Precipitation 0.00 in - - ()
Sea Level Pressure  
Sea Level Pressure 29.94 in    
Wind  
Wind Speed 4 mph (SW)    
Max Wind Speed 13 mph    
Max Gust Speed 17 mph    
Visibility 10 miles    
Events      
Averages and records for this station are not official NWS values.
T = Trace of Precipitation, MM = Missing Value Source: NWS Daily Summary

Daily Weather History Graph

Daily Weather History Graph

Search for Another Location

Airport or City:

Trip Planner

Search our weather history database for the weather conditions in past years. The results will help you decide how hot, cold, wet, or windy it might be!

Date:

Astronomy

Jul. 03, 2012 Rise Set
Actual Time 6:12 AM EDT 9:07 PM EDT
Civil Twilight 5:40 AM EDT 9:40 PM EDT
Nautical Twilight 4:59 AM EDT 10:21 PM EDT
Astronomical Twilight 4:11 AM EDT 11:08 PM EDT
Moon 9:02 PM EDT (7/3) 6:04 AM EDT (7/3)
Length of Visible Light 15h 59m
Length of Day
14h 55m
Full, 100% of the Moon is Illuminated
Jul 3
Full
Jul 3
Full
Jul 10
Last Quarter
Jul 19
New
Jul 26
First Quarter

Hourly Weather History & Observations

Time (EDT) Temp. Heat Index Dew Point Humidity Pressure Visibility Wind Dir Wind Speed Gust Speed Precip Events Conditions
12:55 AM 75.9 °F - 70.7 °F 84% 29.99 in 10.0 mi SSE 3.5 mph - N/A   Clear
1:55 AM 76.5 °F - 70.0 °F 80% 29.98 in 10.0 mi Calm Calm - N/A   Scattered Clouds
2:55 AM 76.3 °F - 69.8 °F 80% 29.96 in 10.0 mi Calm Calm - N/A   Scattered Clouds
3:55 AM 74.1 °F - 69.3 °F 85% 29.95 in 10.0 mi Calm Calm - N/A   Mostly Cloudy
4:55 AM 73.4 °F - 68.5 °F 85% 29.94 in 10.0 mi Calm Calm - N/A   Mostly Cloudy
5:55 AM 72.7 °F - 68.4 °F 86% 29.96 in 10.0 mi Calm Calm - N/A   Scattered Clouds
6:55 AM 71.8 °F - 68.7 °F 90% 29.99 in 7.0 mi Calm Calm - N/A   Scattered Clouds
7:55 AM 76.8 °F - 68.5 °F 75% 29.99 in 10.0 mi NNW 4.6 mph - N/A   Mostly Cloudy
8:55 AM 79.5 °F - 68.2 °F 68% 29.98 in 10.0 mi Calm Calm - N/A   Mostly Cloudy
9:55 AM 84.4 °F 86.3 °F 65.3 °F 53% 29.98 in 10.0 mi WSW 9.2 mph - N/A   Mostly Cloudy
10:55 AM 87.3 °F 89.5 °F 66.0 °F 49% 29.98 in 10.0 mi WSW 9.2 mph - N/A   Clear
11:55 AM 90.3 °F 93.9 °F 67.3 °F 47% 29.98 in 10.0 mi WSW 10.4 mph - N/A   Partly Cloudy
12:55 PM 91.8 °F 94.6 °F 66.0 °F 43% 29.97 in 10.0 mi West 10.4 mph - N/A   Mostly Cloudy
1:55 PM 93.0 °F 95.0 °F 64.4 °F 39% 29.95 in 10.0 mi WSW 10.4 mph - N/A   Mostly Cloudy
2:55 PM 94.6 °F 95.5 °F 61.9 °F 34% 29.92 in 10.0 mi WSW 5.8 mph - N/A   Scattered Clouds
3:55 PM 96.3 °F 97.6 °F 62.8 °F 33% 29.90 in 10.0 mi South 10.4 mph - N/A   Mostly Cloudy
4:55 PM 96.8 °F 98.0 °F 62.1 °F 32% 29.88 in 10.0 mi West 11.5 mph 17.3 mph N/A   Mostly Cloudy
5:55 PM 95.7 °F 96.7 °F 62.2 °F 33% 29.87 in 10.0 mi SSW 12.7 mph - N/A   Mostly Cloudy
6:55 PM 94.8 °F 95.8 °F 62.2 °F 34% 29.87 in 10.0 mi WSW 9.2 mph - N/A   Mostly Cloudy
7:55 PM 92.1 °F 93.2 °F 63.5 °F 38% 29.88 in 10.0 mi WSW 6.9 mph - N/A   Mostly Cloudy
8:55 PM 86.9 °F 89.6 °F 66.7 °F 51% 29.88 in 10.0 mi SW 8.1 mph - N/A   Mostly Cloudy
9:55 PM 83.3 °F 85.7 °F 66.4 °F 57% 29.89 in 10.0 mi WSW 5.8 mph - N/A   Clear
10:55 PM 79.5 °F - 67.3 °F 66% 29.91 in 10.0 mi SW 4.6 mph - N/A   Clear
11:55 PM 79.9 °F - 67.1 °F 65% 29.91 in 10.0 mi SSW 5.8 mph - N/A   Clear